TimeCST,TemperatureF,Dew PointF,Humidity,Sea Level PressureIn,VisibilityMPH,Wind Direction,Wind SpeedMPH,Gust SpeedMPH,PrecipitationIn,Events,Conditions,WindDirDegrees,DateUTC
12:53 AM,37.0,35.1,93,29.96,10.0,ESE,6.9,-,N/A,,Clear,110,2012-11-09 06:53:00
1:53 AM,36.0,34.0,93,29.96,10.0,ESE,6.9,-,N/A,,Clear,110,2012-11-09 07:53:00
2:53 AM,39.0,37.0,93,29.95,9.0,ESE,8.1,-,N/A,,Overcast,110,2012-11-09 08:53:00
3:53 AM,39.0,37.0,93,29.94,9.0,ESE,6.9,-,N/A,,Mostly Cloudy,110,2012-11-09 09:53:00
4:53 AM,35.1,35.1,100,29.95,6.0,East,6.9,-,N/A,,Clear,100,2012-11-09 10:53:00
5:53 AM,35.1,34.0,96,29.95,6.0,ESE,8.1,-,N/A,,Clear,110,2012-11-09 11:53:00
6:53 AM,36.0,35.1,97,29.96,6.0,East,6.9,-,N/A,,Partly Cloudy,90,2012-11-09 12:53:00
7:53 AM,39.0,37.0,93,29.97,5.0,East,6.9,-,N/A,,Overcast,100,2012-11-09 13:53:00
8:53 AM,42.1,39.0,89,29.96,8.0,ESE,11.5,-,N/A,,Scattered Clouds,110,2012-11-09 14:53:00
9:53 AM,46.0,41.0,83,29.95,10.0,East,10.4,-,N/A,,Clear,100,2012-11-09 15:53:00
10:53 AM,50.0,42.1,74,29.94,10.0,East,8.1,-,N/A,,Clear,100,2012-11-09 16:53:00
11:53 AM,53.1,43.0,69,29.91,10.0,ESE,8.1,-,N/A,,Clear,120,2012-11-09 17:53:00
12:53 PM,55.0,44.1,67,29.88,10.0,East,11.5,-,N/A,,Clear,100,2012-11-09 18:53:00
1:53 PM,55.9,44.1,64,29.86,10.0,East,12.7,-,N/A,,Clear,100,2012-11-09 19:53:00
2:53 PM,55.0,45.0,69,29.85,10.0,East,13.8,-,N/A,,Clear,100,2012-11-09 20:53:00
3:53 PM,55.9,46.0,69,29.85,10.0,ESE,10.4,-,N/A,,Clear,120,2012-11-09 21:53:00
4:53 PM,52.0,45.0,77,29.86,10.0,ESE,10.4,-,N/A,,Clear,110,2012-11-09 22:53:00
5:53 PM,52.0,45.0,77,29.86,10.0,East,10.4,-,N/A,,Mostly Cloudy,90,2012-11-09 23:53:00
6:53 PM,51.1,45.0,80,29.86,10.0,East,12.7,-,N/A,,Mostly Cloudy,90,2012-11-10 00:53:00
7:53 PM,52.0,45.0,77,29.85,10.0,East,13.8,-,N/A,,Overcast,100,2012-11-10 01:53:00
8:53 PM,52.0,45.0,77,29.85,10.0,East,16.1,-,N/A,,Overcast,100,2012-11-10 02:53:00
9:53 PM,52.0,46.0,80,29.84,10.0,East,15.0,-,N/A,,Overcast,100,2012-11-10 03:53:00
11:53 PM,53.1,46.9,80,29.82,10.0,ESE,12.7,-,N/A,,Overcast,110,2012-11-10 05:53:00